RYR51TU LIMJ-EGSS

Flight info

Callsign RYR51TU
Flight time N/A
Altitude 38000
Route LAGE6E LAGEN DCT NEDED DCT TOP DCT AOSTA DCT ORSUD DCT MOLUS DCT IBODI DCT GOTED DCT TRO DCT CLM DCT KOPOR DCT SOSUN DCT SUBIP UM733 BANVA
Aircraft B738/M-SDE3FGILRWY/SB1

Departure

Time 2026-04-22 18:17
Airport Genoa Cristoforo Colombo Airport (LIMJ)

Arrival

Time N/A
Airport London Stansted Airport (EGSS)
Time Latitude Longitude Altitude Speed Heading
2026-04-22 17:45 44.41549 8.84931 9 ft 0 kts 101°
2026-04-22 18:07 44.41549 8.84928 9 ft 1 kts 102°
2026-04-22 18:07 44.41553 8.84908 10 ft 3 kts 130°
2026-04-22 18:08 44.41565 8.84896 9 ft 3 kts 187°
2026-04-22 18:08 44.41579 8.84901 9 ft 3 kts 200°
2026-04-22 18:08 44.41596 8.84913 10 ft 3 kts 225°
2026-04-22 18:08 44.41610 8.84934 11 ft 3 kts 228°
2026-04-22 18:09 44.41623 8.84954 10 ft 2 kts 228°
2026-04-22 18:09 44.41626 8.84960 9 ft 0 kts 228°
2026-04-22 18:11 44.41614 8.84942 12 ft 7 kts 228°
2026-04-22 18:11 44.41568 8.84862 9 ft 12 kts 233°
2026-04-22 18:12 44.41516 8.84767 9 ft 12 kts 231°
2026-04-22 18:12 44.41464 8.84676 9 ft 12 kts 230°
2026-04-22 18:12 44.41415 8.84669 10 ft 12 kts 141°
2026-04-22 18:12 44.41380 8.84814 10 ft 14 kts 104°
2026-04-22 18:13 44.41352 8.84967 10 ft 19 kts 103°
2026-04-22 18:13 44.41316 8.85163 8 ft 19 kts 104°
2026-04-22 18:13 44.41272 8.85269 8 ft 11 kts 145°
2026-04-22 18:13 44.41196 8.85271 8 ft 11 kts 194°
2026-04-22 18:14 44.41122 8.85243 10 ft 11 kts 195°
2026-04-22 18:14 44.41099 8.85234 8 ft 0 kts 196°
2026-04-22 18:15 44.41071 8.85218 8 ft 10 kts 208°
2026-04-22 18:15 44.41011 8.85163 7 ft 8 kts 241°
2026-04-22 18:15 44.41012 8.85124 5 ft 0 kts 281°
2026-04-22 18:16 44.41022 8.85071 6 ft 26 kts 285°
2026-04-22 18:16 44.41143 8.84463 11 ft 103 kts 285°
2026-04-22 18:16 44.41390 8.83194 19 ft 165 kts 288°
2026-04-22 18:17 44.41663 8.81630 805 ft 159 kts 289°
2026-04-22 18:17 44.41932 8.80115 1635 ft 167 kts 289°
2026-04-22 18:17 44.42244 8.78451 2187 ft 185 kts 289°
2026-04-22 18:17 44.42298 8.76625 2864 ft 198 kts 251°
2026-04-22 18:18 44.41401 8.75186 3585 ft 207 kts 204°
2026-04-22 18:18 44.39993 8.75027 4451 ft 202 kts 160°
2026-04-22 18:18 44.38737 8.75833 5198 ft 203 kts 149°
2026-04-22 18:18 44.37476 8.76820 5908 ft 209 kts 147°
2026-04-22 18:19 44.36121 8.77629 6279 ft 229 kts 172°
2026-04-22 18:19 44.34509 8.77124 6489 ft 255 kts 213°
2026-04-22 18:19 44.33331 8.75191 6773 ft 274 kts 250°
2026-04-22 18:19 44.33053 8.72571 7477 ft 275 kts 276°
2026-04-22 18:20 44.33518 8.69989 8281 ft 274 kts 294°
2026-04-22 18:20 44.34270 8.67536 9109 ft 277 kts 296°
2026-04-22 18:20 44.35060 8.65053 9859 ft 282 kts 296°
2026-04-22 18:20 44.35838 8.62510 10509 ft 291 kts 295°
2026-04-22 18:21 44.36634 8.59781 10693 ft 315 kts 294°
2026-04-22 18:21 44.37463 8.56835 10977 ft 334 kts 293°
2026-04-22 18:21 44.38310 8.53779 11633 ft 340 kts 294°
2026-04-22 18:21 44.39356 8.50831 12425 ft 338 kts 305°
2026-04-22 18:22 44.40775 8.48233 13301 ft 336 kts 314°
2026-04-22 18:22 44.42482 8.46014 14142 ft 336 kts 320°
2026-04-22 18:22 44.44279 8.43898 14929 ft 337 kts 321°
2026-04-22 18:22 44.46084 8.41800 15758 ft 338 kts 321°
2026-04-22 18:23 44.47891 8.39693 16610 ft 338 kts 320°
2026-04-22 18:23 44.49693 8.37581 17430 ft 339 kts 320°
2026-04-22 18:23 44.51506 8.35443 18240 ft 340 kts 320°
2026-04-22 18:24 44.55105 8.31171 19730 ft 339 kts 319°
2026-04-22 18:24 44.56912 8.29023 20279 ft 343 kts 319°
2026-04-22 18:24 44.60591 8.24637 21425 ft 350 kts 319°
2026-04-22 18:25 44.62452 8.22413 22023 ft 353 kts 319°
2026-04-22 18:25 44.64326 8.20173 22576 ft 355 kts 319°
2026-04-22 18:25 44.66215 8.17916 23119 ft 358 kts 319°
2026-04-22 18:26 44.70015 8.13368 24114 ft 364 kts 318°
2026-04-22 18:26 44.71942 8.11051 24705 ft 363 kts 318°
2026-04-22 18:26 44.73852 8.08753 25272 ft 362 kts 318°
2026-04-22 18:26 44.75780 8.06430 25639 ft 367 kts 318°
2026-04-22 18:27 44.77727 8.04081 26031 ft 370 kts 318°
2026-04-22 18:27 44.79688 8.01715 26457 ft 372 kts 318°
2026-04-22 18:27 44.81658 7.99337 26837 ft 374 kts 318°
2026-04-22 18:27 44.83652 7.96924 27091 ft 381 kts 318°
2026-04-22 18:28 44.85670 7.94483 27479 ft 383 kts 317°
2026-04-22 18:28 44.87694 7.92033 27927 ft 384 kts 317°
2026-04-22 18:28 44.89726 7.89571 28322 ft 386 kts 317°
2026-04-22 18:28 44.91836 7.87202 28673 ft 390 kts 323°
2026-04-22 18:29 44.94166 7.85216 29160 ft 392 kts 329°
2026-04-22 18:29 44.96679 7.83662 29564 ft 396 kts 333°
2026-04-22 18:29 44.99236 7.82188 29854 ft 399 kts 334°
2026-04-22 18:29 45.01807 7.80712 30189 ft 400 kts 333°
2026-04-22 18:30 45.04386 7.79228 30616 ft 398 kts 334°
2026-04-22 18:30 45.09453 7.76290 31651 ft 390 kts 334°
2026-04-22 18:30 45.11962 7.74824 32077 ft 388 kts 334°
2026-04-22 18:31 45.13610 7.73858 32433 ft 385 kts 334°
2026-04-22 18:31 45.16069 7.72415 33031 ft 379 kts 334°
2026-04-22 18:31 45.18497 7.70988 33461 ft 377 kts 334°
2026-04-22 18:31 45.20926 7.69556 33667 ft 380 kts 334°
2026-04-22 18:32 45.23375 7.68110 33911 ft 382 kts 334°
2026-04-22 18:32 45.25818 7.66669 34318 ft 379 kts 334°
2026-04-22 18:32 45.28247 7.65235 34623 ft 378 kts 334°
2026-04-22 18:32 45.30686 7.63793 34784 ft 381 kts 335°
2026-04-22 18:33 45.33137 7.62342 35013 ft 382 kts 335°
2026-04-22 18:33 45.35588 7.60892 35344 ft 381 kts 335°
2026-04-22 18:33 45.38032 7.59444 35616 ft 381 kts 335°
2026-04-22 18:33 45.40477 7.57994 35833 ft 382 kts 335°
2026-04-22 18:34 45.42943 7.56529 35999 ft 385 kts 335°
2026-04-22 18:34 45.45412 7.55062 36254 ft 385 kts 335°
2026-04-22 18:34 45.47886 7.53590 36455 ft 387 kts 335°
2026-04-22 18:34 45.50374 7.52109 36671 ft 388 kts 335°
2026-04-22 18:35 45.52867 7.50634 37018 ft 388 kts 335°
2026-04-22 18:35 45.55333 7.49190 37240 ft 388 kts 335°
2026-04-22 18:35 45.57825 7.47691 37442 ft 388 kts 335°
2026-04-22 18:35 45.60320 7.46187 37600 ft 390 kts 335°
2026-04-22 18:36 45.62827 7.44679 37744 ft 391 kts 335°